"Pseudo-MPEC" for P225jva

Created 2025 Jan 20 15:31:24 UT using Find_Orb

Click here for an explanation of pseudo-MPECs

 
 Astrometry: 
     P225jva* C2025 01 07.38014807 23 22.342+37 03 03.99   ~17Dl 21.32wXNEOCPF52
     P225jva  C2025 01 07.39167707 23 19.995+37 02 00.69   ~17Dl 21.23wXNEOCPF52
     P225jva  C2025 01 07.41472407 23 15.312+36 59 55.75   ~17EV 21.16GVNEOCPF52
     P225jva  C2025 01 07.57661007 22 44.592+36 44 37.65   ~18Kl 21.56GVNEOCPF51
     P225jva  C2025 01 07.57725507 22 44.465+36 44 33.39   ~18Kl 21.28GVNEOCPF51

Station data:
(F51) Pan-STARRS 1, Haleakala  (N20.707234 W156.255910)  US/Hawaii.
   Observers J. Bulger, T. Lowe, A. Schultz, M. Willman. Measurers K.
   Chambers, S. Chastel, T. de Boer, L. Denneau, J. Fairlamb, H. Flewelling,
   M. Huber, C.-C. Lin, E. Magnier, Y. Ramanjooloo, R. Wainscoat, R. Weryk.
   1.8-m Ritchey-Chrétien + CCD.
(F52) Pan-STARRS 2, Haleakala  (N20.707382 W156.255910)  US/Hawaii.
   Observers J. Bulger, T. Dukes, T. Lowe, A. Schultz, M. Willman. Measurers
   K. Chambers, S. Chastel, T. de Boer, L. Denneau, J. Fairlamb, H.
   Flewelling, M. Huber, C.-C. Lin, E. Magnier, Y. Ramanjooloo, R. Wainscoat,
   R. Weryk. 1.8-m Ritchey-Chrétien + CCD.

Orbital elements:  P225jva
   Perihelion 2024 Nov 13.90920 +/- 2.11 TT = 21:49:14 (JD 2460628.40920)
Epoch 2025 Jan  7.0 TT = JDT 2460682.5   Earth MOID: 0.0055   Ve: 0.0008
M  30.28245958 +/- 4.3              Ma: 0.0288                   AutoNEOCP
n   0.55984488 +/- 0.0593           Peri.  286.53577 +/- 4.2
a   1.45800015 +/- 0.103            Node    96.43676 +/- 3.9
e   0.5110172 +/- 0.0513            Incl.    3.17487 +/- 0.9
P   1.761/643.023d         H 27.48  G  0.15   U 10.8
q 0.71293685 +/- 0.0245    Q 2.20306345 +/- 0.23          (J2000 ecliptic)
From 5 observations 2025 Jan. 7 (4.7 hr); mean residual 0".26
Residuals in arcseconds: 
250107 F52  .10+  .35+    250107 F52  .04+  .21+    250107 F51  .15-  .26-    
250107 F52  .14-  .55-    250107 F51  .15+  .25+    

Ephemerides (geocentric):
Date (UTC) HH   RA             Dec           delta  r     elong  mag " sig PA
---- --------  ------------   ------------  ------ ------ -----  --- --------
2025 01 20 16  07 18 25.604   +31 04 12.16  .15640 1.1351 163.9 24.5 2333  19
2025 01 20 17  07 18 25.718   +31 03 49.26  .15678 1.1355 163.8 24.5 2337  19
2025 01 20 18  07 18 25.834   +31 03 26.43  .15715 1.1358 163.8 24.5 2341  19
2025 01 20 19  07 18 25.954   +31 03 03.66  .15753 1.1362 163.8 24.5 2345  19
2025 01 20 20  07 18 26.077   +31 02 40.96  .15791 1.1365 163.7 24.6 2348  19
2025 01 20 21  07 18 26.203   +31 02 18.32  .15829 1.1369 163.7 24.6 2352  19
2025 01 20 22  07 18 26.333   +31 01 55.75  .15867 1.1372 163.7 24.6 2356  19
2025 01 20 23  07 18 26.466   +31 01 33.25  .15905 1.1376 163.6 24.6 2359  19
2025 01 21 00  07 18 26.602   +31 01 10.81  .15943 1.1379 163.6 24.6 2363  19
2025 01 21 01  07 18 26.741   +31 00 48.43  .15981 1.1383 163.6 24.6 2367  19
2025 01 21 02  07 18 26.883   +31 00 26.12  .16019 1.1386 163.5 24.6 2370  19
2025 01 21 03  07 18 27.028   +31 00 03.87  .16057 1.1390 163.5 24.6 2374  19
2025 01 21 04  07 18 27.177   +30 59 41.68  .16095 1.1393 163.5 24.6 2378  19
2025 01 21 05  07 18 27.329   +30 59 19.56  .16133 1.1397 163.5 24.6 2381  19
2025 01 21 06  07 18 27.484   +30 58 57.49  .16171 1.1400 163.4 24.6 2385  19
2025 01 21 07  07 18 27.642   +30 58 35.49  .16209 1.1404 163.4 24.6 2388  19
2025 01 21 08  07 18 27.803   +30 58 13.55  .16247 1.1407 163.4 24.6 2392  19
2025 01 21 09  07 18 27.968   +30 57 51.67  .16285 1.1411 163.3 24.6 2396  19
2025 01 21 10  07 18 28.135   +30 57 29.85  .16323 1.1414 163.3 24.6 2399  19
2025 01 21 11  07 18 28.306   +30 57 08.08  .16362 1.1418 163.3 24.7 2403  19
2025 01 21 12  07 18 28.480   +30 56 46.38  .16400 1.1421 163.2 24.7 2406  19
2025 01 21 13  07 18 28.657   +30 56 24.74  .16438 1.1425 163.2 24.7 2410  19
2025 01 21 14  07 18 28.838   +30 56 03.15  .16476 1.1428 163.2 24.7 2413  19
2025 01 21 15  07 18 29.021   +30 55 41.62  .16514 1.1432 163.1 24.7 2417  19
2025 01 21 16  07 18 29.208   +30 55 20.15  .16552 1.1435 163.1 24.7 2420  19
2025 01 21 17  07 18 29.397   +30 54 58.73  .16590 1.1439 163.1 24.7 2423  19
2025 01 21 18  07 18 29.590   +30 54 37.37  .16629 1.1442 163.0 24.7 2427  19
2025 01 21 19  07 18 29.786   +30 54 16.07  .16667 1.1446 163.0 24.7 2430  19
2025 01 21 20  07 18 29.985   +30 53 54.82  .16705 1.1449 163.0 24.7 2434  19
2025 01 21 21  07 18 30.188   +30 53 33.63  .16743 1.1453 162.9 24.7 2437  19
2025 01 21 22  07 18 30.393   +30 53 12.49  .16782 1.1456 162.9 24.7 2440  19
2025 01 21 23  07 18 30.602   +30 52 51.41  .16820 1.1460 162.9 24.7 2444  19
2025 01 22 00  07 18 30.813   +30 52 30.38  .16858 1.1463 162.8 24.7 2447  19
2025 01 22 01  07 18 31.028   +30 52 09.40  .16896 1.1467 162.8 24.7 2450  19
2025 01 22 02  07 18 31.246   +30 51 48.48  .16935 1.1470 162.8 24.8 2454  19
2025 01 22 03  07 18 31.467   +30 51 27.61  .16973 1.1474 162.7 24.8 2457  19
2025 01 22 04  07 18 31.691   +30 51 06.79  .17011 1.1477 162.7 24.8 2460  19
2025 01 22 05  07 18 31.919   +30 50 46.02  .17050 1.1481 162.7 24.8 2463  19
2025 01 22 06  07 18 32.149   +30 50 25.31  .17088 1.1484 162.7 24.8 2467  19
2025 01 22 07  07 18 32.383   +30 50 04.64  .17126 1.1488 162.6 24.8 2470  19
2025 01 22 08  07 18 32.619   +30 49 44.03  .17165 1.1491 162.6 24.8 2473  19
2025 01 22 09  07 18 32.859   +30 49 23.47  .17203 1.1495 162.6 24.8 2476  19
2025 01 22 10  07 18 33.102   +30 49 02.95  .17242 1.1498 162.5 24.8 2479  19
2025 01 22 11  07 18 33.348   +30 48 42.49  .17280 1.1502 162.5 24.8 2482  19
2025 01 22 12  07 18 33.597   +30 48 22.08  .17318 1.1505 162.5 24.8 2486  19
2025 01 22 13  07 18 33.849   +30 48 01.71  .17357 1.1509 162.4 24.8 2489  19
2025 01 22 14  07 18 34.105   +30 47 41.40  .17395 1.1512 162.4 24.8 2492  19
2025 01 22 15  07 18 34.363   +30 47 21.13  .17434 1.1516 162.4 24.8 2495  19